Temp
47 46 46 46 46 46 46 45 42 37 38 38 41 47 43 42 43 42 42 47 46 46 47 48 49 50 50 50 50 49 49 49 48 48 47 47 47 48
46 45 45 45 45 45 44 44 44 42 38 38 39 41 43 46 45 42 40 45 46 45 45 46 47 48 49 49 49 49 48 48 48 47 47 46 47 47
45 45 45 45 44 43 44 44 43 39 36 38 37 40 38 40 43 41 40 39 41 45 44 45 45 45 46 46 47 47 47 47 47 47 47 46 46 46
44 44 44 46 44 43 42 41 38 38 36 37 36 36 37 40 39 39 44 45 42 45 45 45 44 44 44 44 45 45 45 45 45 45 45 45 45 45
45 44 44 44 43 42 40 40 43 45 42 38 40 36 35 36 36 37 39 40 44 46 45 44 44 45 45 44 44 44 44 43 42 42 42 42 43 43
45 45 45 45 43 42 42 42 40 36 36 35 37 36 33 36 38 38 37 35 39 43 45 43 42 44 44 44 43 43 43 43 42 42 41 40 40 41
45 46 45 44 44 42 42 36 35 35 34 32 33 34 32 29 30 34 32 33 32 34 34 35 38 39 36 42 41 43 43 43 42 42 41 40 40 40
42 42 39 39 38 38 38 38 36 31 29 28 29 30 32 33 31 34 32 33 32 32 34 36 36 34 35 33 39 40 41 41 41 41 41 40 40 39
35 35 38 39 35 34 34 34 34 35 31 29 28 28 29 31 33 33 33 32 33 34 33 29 31 31 33 37 40 40 41 41 40 40 40 39 39 38
33 33 31 31 32 32 30 28 28 29 30 31 28 30 31 33 32 34 32 33 34 35 34 30 28 31 30 30 38 40 40 40 40 40 39 39 38 38
32 32 31 30 33 34 29 27 27 28 34 35 35 35 35 35 35 32 29 27 27 33 29 31 29 27 27 28 29 38 40 39 38 38 38 39 39 38
29 30 32 30 32 32 27 26 25 27 29 31 33 34 35 33 34 31 31 28 28 29 30 29 29 27 21 24 27 28 28 34 36 37 38 38 38 32
27 26 26 30 31 32 32 27 28 29 28 27 29 28 29 30 31 32 34 31 29 30 32 32 27 26 22 23 24 27 27 26 26 28 34 35 36 35
26 26 25 30 31 31 29 31 30 27 24 23 24 26 25 26 28 32 34 33 33 32 35 31 27 27 24 21 22 24 23 23 22 24 25 31 35 35
27 27 29 29 29 28 29 29 25 23 21 20 21 22 23 25 28 30 33 34 33 34 34 32 29 27 26 23 21 22 21 26 24 22 23 24 27 28
26 26 24 25 24 24 24 25 24 22 20 20 19 21 23 24 24 29 31 31 30 31 31 31 30 29 24 25 26 23 24 21 23 24 24 27 27 25
23 22 23 22 21 22 22 21 21 20 18 18 18 17 19 21 22 24 25 31 29 27 27 29 30 29 28 28 22 25 26 23 21 23 25 24 25 26
23 19 16 12 15 18 17 17 18 17 18 18 16 16 16 17 20 21 23 30 27 28 27 28 28 27 27 26 31 26 22 20 22 25 26 21 23 26
18 16 10 9 11 17 16 16 14 15 16 15 14 13 14 16 17 17 18 27 27 26 25 27 28 26 22 15 26 33 24 22 22 20 22 21 19 24
20 17 14 13 14 15 15 13 13 11 10 12 12 11 12 13 14 16 17 16 24 28 26 27 27 27 24 18 19 21 32 24 23 17 18 22 24 29
17 16 14 14 13 13 6 4 1 1 4 6 6 8 9 10 11 15 15 15 16 26 26 26 27 29 27 24 17 16 19 31 27 22 21 17 18 21
14 14 14 12 6 7 1 -1 3 2 4 6 4 7 4 8 9 12 13 12 14 16 25 25 28 27 25 26 21 14 18 20 27 32 30 28 19 15
9 12 8 3 3 2 7 1 3 -1 4 8 8 8 5 6 9 12 12 12 14 17 21 26 27 27 27 28 24 20 19 17 21 22 20 29 31 31
MSLP
1021.95 1022.49 1022.85 1023.35 1023.69 1023.97 1024.23 1024.41 1024.69 1024.94 1024.80 1024.55 1024.43 1023.64 1023.74 1023.89 1023.78 1023.89 1023.97 1023.95 1024.15 1024.28 1024.22 1024.17 1024.23 1024.47 1024.60 1024.74 1024.73 1024.70 1024.75 1024.79 1024.71 1024.64 1024.51 1024.33 1023.98 1023.55
1021.79 1022.19 1022.52 1023.06 1023.51 1023.74 1024.06 1024.52 1024.71 1024.87 1024.81 1024.54 1024.36 1023.87 1023.36 1023.20 1023.24 1023.26 1023.32 1023.19 1023.32 1023.51 1023.43 1023.37 1023.49 1023.65 1023.75 1023.86 1023.83 1023.92 1023.96 1024.06 1023.95 1023.92 1023.84 1023.73 1023.43 1022.99
1021.70 1022.10 1022.58 1022.90 1023.35 1023.73 1024.11 1024.24 1024.30 1024.49 1024.48 1024.00 1023.71 1023.31 1023.28 1023.15 1022.80 1022.64 1022.63 1022.78 1022.72 1022.57 1022.63 1022.61 1022.91 1023.34 1023.33 1023.15 1022.96 1023.15 1023.18 1023.28 1023.23 1023.15 1022.97 1022.92 1022.81 1022.56
1021.47 1021.99 1022.44 1022.91 1023.28 1023.45 1023.71 1023.79 1023.82 1023.68 1023.95 1023.75 1023.48 1023.22 1022.86 1022.36 1022.16 1022.18 1021.83 1021.69 1021.80 1021.60 1021.58 1021.71 1021.92 1022.17 1022.34 1022.16 1021.97 1022.32 1022.35 1022.42 1022.48 1022.43 1022.26 1022.22 1022.19 1022.10
1021.40 1021.87 1022.36 1022.76 1022.92 1023.10 1023.15 1023.31 1023.11 1023.03 1023.00 1023.13 1022.77 1022.43 1022.27 1022.18 1021.98 1021.67 1021.42 1021.10 1020.86 1020.67 1020.40 1020.63 1020.71 1020.75 1021.33 1021.40 1021.27 1021.50 1021.48 1021.64 1021.78 1021.70 1021.63 1021.56 1021.47 1021.40
1021.30 1021.61 1022.03 1022.28 1022.36 1022.54 1022.67 1022.59 1022.62 1022.86 1022.80 1022.81 1022.66 1022.51 1022.37 1021.94 1021.98 1021.61 1021.01 1020.63 1020.37 1020.11 1019.68 1019.84 1020.39 1020.59 1020.13 1020.22 1020.45 1020.67 1020.71 1020.84 1020.95 1020.94 1020.86 1020.75 1020.70 1020.66
1021.25 1021.52 1021.69 1021.77 1021.92 1022.21 1022.39 1022.73 1022.75 1022.81 1022.85 1022.77 1022.64 1022.29 1022.21 1022.01 1021.80 1021.15 1020.84 1020.40 1019.79 1019.59 1019.38 1019.43 1019.70 1019.60 1019.72 1019.51 1019.58 1019.77 1019.95 1020.09 1020.10 1020.12 1020.15 1020.06 1019.97 1019.93
1021.23 1021.60 1021.79 1022.09 1022.34 1022.61 1022.78 1022.74 1022.77 1022.82 1022.85 1022.91 1022.73 1022.40 1021.91 1021.75 1021.16 1020.96 1020.57 1020.32 1019.70 1018.88 1019.09 1018.82 1019.00 1018.98 1019.34 1019.09 1019.04 1019.22 1019.30 1019.37 1019.41 1019.52 1019.49 1019.43 1019.39 1019.31
1021.50 1021.74 1021.98 1022.34 1022.56 1022.65 1022.72 1022.89 1022.87 1022.78 1022.88 1022.73 1022.47 1022.13 1021.52 1021.35 1020.94 1020.39 1019.99 1019.45 1018.79 1018.38 1018.32 1018.47 1018.40 1018.62 1018.50 1018.32 1018.41 1018.46 1018.55 1018.62 1018.81 1018.86 1018.83 1018.82 1018.75 1018.63
1021.81 1021.98 1022.09 1022.26 1022.42 1022.46 1022.50 1022.66 1022.63 1022.55 1022.31 1022.20 1021.76 1021.38 1020.99 1020.68 1020.61 1020.03 1019.63 1019.03 1018.24 1017.59 1017.51 1017.37 1017.53 1017.58 1017.53 1017.73 1017.78 1017.79 1017.89 1017.97 1018.12 1018.21 1018.28 1018.24 1018.11 1017.94
1022.07 1022.09 1022.14 1022.29 1022.43 1022.42 1022.45 1022.62 1022.50 1022.29 1021.92 1021.61 1021.11 1020.62 1020.28 1019.95 1019.65 1019.42 1018.97 1018.63 1017.29 1016.48 1016.69 1016.78 1016.92 1017.10 1017.13 1017.22 1017.17 1017.04 1017.20 1017.46 1017.74 1017.81 1017.78 1017.62 1017.41 1017.20
1022.25 1022.41 1022.53 1022.57 1022.56 1022.47 1022.43 1022.45 1022.26 1022.00 1021.58 1021.07 1020.56 1019.91 1019.45 1018.92 1018.54 1018.63 1018.13 1017.62 1016.94 1016.14 1016.08 1016.41 1016.29 1016.64 1016.93 1016.74 1016.67 1016.94 1017.10 1017.21 1017.35 1017.30 1017.24 1017.08 1016.85 1016.77
1022.36 1022.57 1022.72 1022.70 1022.57 1022.33 1022.11 1022.11 1022.02 1021.78 1021.39 1020.92 1020.25 1019.52 1019.05 1018.43 1017.78 1017.34 1016.90 1016.61 1016.01 1015.24 1015.08 1015.22 1015.48 1015.98 1016.24 1016.55 1016.67 1016.70 1016.72 1016.85 1017.02 1017.01 1016.79 1016.59 1016.38 1016.16
1022.49 1022.59 1022.58 1022.43 1022.22 1022.18 1022.18 1022.08 1021.93 1021.66 1021.33 1020.81 1020.16 1019.55 1018.90 1018.15 1017.51 1016.61 1015.58 1015.21 1014.79 1014.34 1014.29 1014.51 1014.79 1015.26 1015.69 1016.16 1016.49 1016.41 1016.45 1016.53 1016.79 1016.72 1016.47 1016.20 1015.87 1015.67
1022.59 1022.57 1022.46 1022.36 1022.24 1022.27 1022.30 1022.12 1022.04 1021.92 1021.62 1021.15 1020.56 1019.94 1019.37 1018.31 1017.11 1015.80 1014.49 1014.06 1013.75 1013.30 1013.33 1013.57 1013.83 1014.33 1014.86 1015.31 1015.77 1015.94 1016.26 1016.20 1016.09 1016.28 1016.21 1016.09 1015.70 1015.43
1022.62 1022.41 1022.29 1022.30 1022.37 1022.57 1022.51 1022.30 1022.39 1022.20 1021.89 1021.55 1021.13 1020.39 1019.33 1018.15 1016.84 1015.57 1013.79 1013.06 1012.75 1012.49 1012.78 1012.95 1013.28 1013.72 1014.27 1014.63 1014.99 1015.47 1015.75 1016.19 1015.67 1015.74 1015.82 1015.49 1015.16 1015.02
1022.36 1022.40 1022.52 1022.72 1022.72 1022.71 1022.55 1022.47 1022.45 1022.27 1022.04 1021.77 1021.21 1020.43 1019.37 1018.10 1016.56 1015.37 1014.22 1012.47 1011.86 1012.01 1012.25 1012.52 1012.87 1013.23 1013.59 1013.97 1014.65 1014.83 1015.08 1015.31 1015.09 1015.30 1015.32 1015.13 1014.76 1014.53
1022.39 1022.59 1022.82 1022.93 1022.89 1022.75 1022.57 1022.49 1022.49 1022.42 1022.22 1021.83 1021.39 1020.73 1019.68 1018.41 1016.92 1015.32 1014.01 1011.91 1011.50 1011.55 1011.82 1012.15 1012.62 1013.24 1013.66 1013.73 1013.70 1014.02 1014.30 1014.59 1014.46 1014.63 1014.66 1014.84 1014.49 1014.10
1022.67 1022.85 1023.07 1023.12 1023.01 1022.82 1022.73 1022.74 1022.73 1022.63 1022.43 1022.06 1021.54 1020.94 1020.01 1018.78 1017.46 1016.17 1014.81 1012.55 1011.65 1011.56 1011.70 1011.93 1012.31 1012.70 1013.25 1013.42 1013.08 1013.07 1013.49 1013.81 1014.07 1014.22 1014.27 1014.41 1014.14 1013.71
1022.70 1023.05 1023.26 1023.25 1023.12 1023.05 1023.01 1023.00 1022.81 1022.64 1022.42 1022.06 1021.45 1020.89 1020.06 1019.27 1017.90 1016.71 1015.62 1014.52 1012.70 1011.46 1011.61 1011.68 1011.85 1012.11 1012.50 1012.82 1013.20 1012.89 1012.60 1013.09 1013.60 1013.79 1013.91 1013.58 1013.39 1013.10
1023.16 1023.29 1023.37 1023.33 1023.35 1023.27 1023.16 1023.03 1022.83 1022.60 1022.28 1021.83 1021.27 1020.70 1019.96 1019.43 1018.42 1017.32 1016.21 1015.21 1014.12 1011.90 1011.22 1011.24 1011.02 1011.25 1011.78 1012.37 1013.11 1013.10 1012.76 1012.46 1012.66 1012.96 1013.16 1013.38 1013.30 1013.10
1023.41 1023.38 1023.40 1023.38 1023.34 1023.26 1023.09 1022.92 1022.77 1022.48 1022.06 1021.57 1021.03 1020.45 1019.99 1019.46 1018.59 1017.46 1016.56 1015.48 1014.24 1013.28 1011.33 1010.56 1010.71 1011.13 1011.59 1011.94 1012.47 1013.03 1012.91 1012.42 1012.10 1012.07 1012.33 1012.49 1012.75 1012.96
1023.46 1023.54 1023.59 1023.55 1023.39 1023.20 1023.03 1022.87 1022.53 1022.16 1021.74 1021.08 1020.65 1020.18 1019.77 1019.25 1018.44 1017.41 1016.69 1015.76 1014.66 1013.22 1011.75 1010.46 1010.54 1010.76 1011.06 1011.47 1012.00 1012.50 1012.64 1012.59 1012.43 1012.18 1012.04 1011.80 1011.87 1011.89
Wind_Speed
7 7 5 4 4 3 3 3 4 3 3 3 3 3 3 3 6 5 8 14 18 20 20 20 20 21 21 19 17 16 16 15 15 16 16 17 19 21
6 8 5 4 5 3 3 3 4 4 4 4 4 5 4 3 6 6 8 17 21 23 21 21 22 23 21 20 19 19 17 17 16 15 15 15 17 19
6 7 6 5 3 2 3 4 4 4 7 4 4 5 3 5 6 5 6 7 8 22 23 22 21 20 21 20 19 19 19 19 18 18 17 16 17 18
8 6 5 4 4 4 3 5 5 5 4 9 4 4 7 7 6 7 7 7 9 14 19 21 19 22 23 21 18 18 18 19 18 20 19 16 18 18
6 5 4 5 5 3 4 5 5 5 5 5 8 4 5 4 5 7 6 8 7 17 20 19 24 21 21 17 18 19 20 18 18 19 18 17 19 20
6 5 5 5 5 5 5 5 5 5 4 5 7 5 4 5 5 7 7 3 8 4 8 5 5 16 19 19 19 17 16 16 19 19 17 15 16 19
5 4 3 3 4 4 2 4 4 3 3 3 5 5 4 3 5 4 5 5 5 5 4 3 6 8 6 12 9 12 13 16 17 12 11 12 14 17
4 1 2 8 8 7 8 6 3 3 3 2 3 7 9 8 3 7 7 6 10 5 4 10 4 2 6 5 10 11 12 13 13 12 13 13 14 15
4 5 5 5 5 4 6 6 3 5 4 5 7 7 10 6 7 11 9 9 11 6 5 7 4 8 6 5 12 13 13 12 11 12 10 11 12 13
6 5 4 4 5 5 4 5 5 5 6 6 6 9 9 10 8 11 12 14 12 9 6 9 4 7 4 4 12 13 12 10 7 8 10 11 12 14
4 5 5 5 10 12 6 5 6 7 8 14 16 19 21 21 18 10 10 9 11 11 6 6 4 4 4 3 5 12 9 5 3 5 8 10 10 12
4 5 9 7 10 11 5 4 7 8 9 10 10 12 15 13 18 10 9 11 10 11 5 7 4 4 1 2 2 2 2 4 6 8 9 11 12 4
3 3 2 7 10 9 9 4 7 10 9 8 9 7 8 9 8 8 10 9 10 10 5 6 4 3 2 2 2 4 4 2 3 5 10 10 12 9
2 1 2 8 7 7 5 12 14 8 7 7 8 9 10 10 10 12 12 9 10 13 6 10 3 4 4 2 3 1 2 3 2 3 3 7 10 11
1 3 7 8 7 4 9 11 7 5 6 8 9 10 9 12 15 14 12 11 12 12 6 10 6 4 4 3 3 3 1 3 3 2 2 3 3 2
2 3 3 3 2 2 3 4 4 4 6 7 8 10 10 11 11 12 11 8 7 7 8 8 8 5 2 3 3 2 3 2 2 2 2 3 3 3
2 1 2 3 3 3 3 4 4 5 6 6 8 10 11 11 11 10 13 11 7 4 3 3 5 6 4 5 2 4 4 3 3 3 3 3 3 4
2 1 2 1 1 3 4 4 5 6 7 8 7 9 10 11 11 12 15 7 5 4 3 3 4 3 1 3 10 5 3 3 2 4 3 2 3 3
1 1 1 1 2 3 3 4 5 4 7 6 7 8 9 10 12 11 11 11 1 2 2 2 4 4 4 4 2 13 4 3 2 1 3 4 3 3
2 2 1 2 2 3 4 5 5 4 3 7 6 7 7 9 11 11 10 10 11 3 3 3 4 6 6 5 3 4 11 3 3 3 2 2 3 7
2 2 1 2 2 4 2 3 3 3 4 6 4 6 4 8 10 10 10 14 14 8 6 6 7 6 3 4 2 3 3 8 8 5 3 2 1 2
1 2 1 1 2 3 3 3 3 4 5 5 4 5 3 7 9 10 9 11 11 10 9 2 5 4 4 4 3 3 2 3 3 9 10 9 5 2
2 2 2 2 3 3 3 2 5 4 6 6 5 6 6 7 8 8 9 10 10 11 12 4 4 4 4 4 4 3 3 2 2 1 3 8 13 15
Wind_Direction
166 159 158 162 175 174 170 168 166 222 236 261 251 252 228 235 251 215 209 217 214 215 217 220 223 228 236 240 247 252 260 269 281 293 294 295 294 292
168 170 161 157 180 185 177 200 212 232 258 200 256 248 262 246 243 216 216 222 216 219 223 223 223 227 233 238 242 248 252 258 270 279 285 288 295 299
163 166 174 167 175 164 200 219 231 204 244 267 227 243 247 256 269 237 224 218 227 227 229 227 228 236 241 238 235 240 244 251 261 267 277 278 286 297
161 163 163 179 194 212 211 238 228 236 217 263 235 242 225 239 236 245 244 230 226 228 230 230 221 227 239 236 234 235 239 247 255 261 270 271 273 278
156 158 156 191 225 222 231 241 247 259 241 246 272 228 247 257 266 260 250 245 229 230 225 228 228 225 243 240 234 236 239 245 248 254 262 264 263 269
153 167 192 205 223 238 240 246 259 265 273 278 287 283 236 250 252 263 265 243 256 226 224 213 261 256 228 229 229 234 241 247 252 254 260 256 249 256
166 181 210 256 263 331 351 15 8 333 322 304 291 302 284 270 240 259 257 264 258 215 209 238 238 229 231 235 216 224 232 242 254 241 246 252 252 256
154 106 8 70 72 68 69 63 35 354 308 280 287 286 285 288 268 272 263 262 259 196 232 253 217 234 247 203 214 227 241 250 226 236 244 255 262 262
93 79 80 54 54 42 36 29 20 325 261 256 269 265 284 285 287 290 279 254 256 251 197 228 183 228 218 217 226 235 246 225 226 236 241 248 259 258
85 86 85 53 44 21 17 352 333 313 299 292 276 283 277 286 274 281 283 281 278 261 201 240 181 223 186 219 240 248 251 219 239 244 247 257 264 262
76 59 61 37 9 4 359 327 310 297 298 300 293 292 291 287 279 287 281 274 274 260 201 234 195 208 200 213 239 237 210 188 229 277 280 278 279 279
58 52 33 15 354 341 327 310 315 316 314 309 305 300 297 278 271 249 264 273 272 273 199 208 190 150 280 239 195 174 161 247 263 281 276 294 292 271
67 34 5 341 334 338 343 325 325 334 322 320 312 303 304 295 278 252 244 246 270 266 201 188 176 174 162 156 219 197 183 258 254 266 285 290 296 282
94 13 287 326 341 351 1 347 345 337 335 327 325 320 311 308 306 297 269 248 243 247 237 194 170 175 168 150 183 239 246 241 196 247 252 277 279 289
80 321 330 342 354 14 360 356 355 347 333 334 325 317 309 302 301 292 271 257 257 257 219 194 196 164 159 169 177 194 152 253 207 215 239 243 248 263
285 304 311 306 11 10 340 5 354 335 336 326 318 311 308 311 304 313 279 260 249 240 210 190 192 164 157 176 164 196 187 214 211 218 235 261 263 232
293 358 31 37 26 356 3 358 346 346 338 331 322 319 316 315 313 320 306 277 238 190 183 180 196 185 184 157 173 213 229 213 218 235 224 244 254 243
69 64 61 17 357 354 358 351 349 339 334 324 323 319 317 319 321 320 317 264 204 177 171 176 166 151 171 268 208 224 197 207 217 229 212 197 259 245
67 63 93 334 293 355 351 342 329 328 321 323 314 318 317 317 327 330 330 308 206 147 170 156 178 173 190 209 274 204 198 198 185 250 200 197 226 262
48 61 354 318 350 356 344 332 320 310 308 313 314 313 313 322 323 326 333 328 314 203 210 188 186 192 196 197 197 250 216 180 173 215 239 252 249 272
31 1 341 14 351 330 303 292 275 283 292 293 284 303 311 324 316 316 321 325 319 288 205 212 218 191 123 94 53 310 289 233 199 184 190 144 216 291
333 344 349 329 308 295 291 289 297 301 298 293 292 294 310 310 306 309 321 319 320 310 279 186 152 156 156 169 180 199 267 310 277 231 204 190 167 224
336 337 309 292 283 280 282 282 290 283 286 290 303 309 302 301 302 307 312 311 308 310 302 188 170 172 174 173 182 189 196 241 228 300 299 240 240 243